Location: Beetenbrück
(52.8113°N, 9.5946°E)
Time: 17:00:07
(UTC+00:00)

Cosmos 1782 Rocket - Pass Details

Date: 14 April 2026
Orbit: 600 x 624 km, 82.5° (Epoch: 9 May)

Event Time Altitude Azimuth Distance (km) Brightness Sun altitude
Exits shadow 22:15:51 44° 278° (W) 841 4.3 -25.9°
Maximum altitude 22:16:04 44° 287° (WNW) 836 4.4 -26.0°
Drops below altitude 10° 22:20:13 10° 0° (N) 1,957 7.0 -26.1°
Sets 22:22:31 0° 7° (N) 2,865 8.0 -26.2°
